Time,TemperatureF,DewpointF,PressureIn,WindDirection,WindDirectionDegrees,WindSpeedMPH,WindSpeedGustMPH,Humidity,HourlyPrecipIn,Conditions,Clouds,dailyrainin,SoftwareType,DateUTC
2013-11-18 00:01:00,55.6,44.5,30.16,SSE,154,0.0,0.0,66,0.00,,,0.00,WUHU216WMR968SP,2013-11-18 08:01:00,
2013-11-18 00:06:00,55.8,45.1,30.16,SSE,155,0.0,0.0,67,0.00,,,0.00,WUHU216WMR968SP,2013-11-18 08:06:00,
2013-11-18 00:11:00,55.8,45.1,30.19,SSE,154,0.0,0.0,67,0.00,,,0.00,WUHU216WMR968SP,2013-11-18 08:11:00,
2013-11-18 00:16:00,55.6,44.9,30.19,SSE,154,0.0,0.0,67,0.00,,,0.00,WUHU216WMR968SP,2013-11-18 08:16:00,
2013-11-18 00:21:00,55.6,44.9,30.19,SSE,154,0.0,0.0,67,0.00,,,0.00,WUHU216WMR968SP,2013-11-18 08:21:00,
2013-11-18 00:26:00,55.6,44.9,30.19,SSE,154,0.0,0.0,67,0.00,,,0.00,WUHU216WMR968SP,2013-11-18 08:26:00,
2013-11-18 00:31:00,54.9,44.3,30.19,SSE,155,0.0,0.0,67,0.00,,,0.00,WUHU216WMR968SP,2013-11-18 08:31:00,
2013-11-18 00:37:00,54.7,44.1,30.19,SSE,154,0.0,0.0,67,0.00,,,0.00,WUHU216WMR968SP,2013-11-18 08:37:00,
2013-11-18 00:42:00,54.7,44.1,30.19,SSE,154,0.0,0.0,67,0.00,,,0.00,WUHU216WMR968SP,2013-11-18 08:42:00,
2013-11-18 00:47:00,54.7,44.1,30.19,SSE,154,0.0,0.0,67,0.00,,,0.00,WUHU216WMR968SP,2013-11-18 08:47:00,
2013-11-18 00:52:00,54.9,44.7,30.19,SSE,154,0.0,0.0,68,0.00,,,0.00,WUHU216WMR968SP,2013-11-18 08:52:00,
2013-11-18 00:57:00,55.0,44.8,30.16,SSE,155,0.0,0.0,68,0.00,,,0.00,WUHU216WMR968SP,2013-11-18 08:57:00,
2013-11-18 01:02:00,55.0,45.1,30.16,SSE,155,0.0,0.0,69,0.00,,,0.00,WUHU216WMR968SP,2013-11-18 09:02:00,
2013-11-18 01:07:00,55.2,45.3,30.16,SSE,154,0.0,0.0,69,0.00,,,0.00,WUHU216WMR968SP,2013-11-18 09:07:00,
2013-11-18 01:12:00,55.2,45.3,30.16,SSE,155,0.0,0.0,69,0.00,,,0.00,WUHU216WMR968SP,2013-11-18 09:12:00,
2013-11-18 01:17:00,55.2,45.3,30.16,SSE,154,0.0,0.0,69,0.00,,,0.00,WUHU216WMR968SP,2013-11-18 09:17:00,
2013-11-18 01:22:00,55.2,45.3,30.16,SSE,154,0.0,0.0,69,0.00,,,0.00,WUHU216WMR968SP,2013-11-18 09:22:00,
2013-11-18 01:27:00,55.2,45.3,30.16,SSE,155,0.0,0.0,69,0.00,,,0.00,WUHU216WMR968SP,2013-11-18 09:27:00,
2013-11-18 01:32:00,55.0,45.1,30.16,SSE,155,0.0,0.0,69,0.00,,,0.00,WUHU216WMR968SP,2013-11-18 09:32:00,
2013-11-18 01:37:00,54.9,45.0,30.16,SSE,154,0.0,0.0,69,0.00,,,0.00,WUHU216WMR968SP,2013-11-18 09:37:00,
2013-11-18 01:42:00,54.9,45.0,30.16,SSE,154,0.0,0.0,69,0.00,,,0.00,WUHU216WMR968SP,2013-11-18 09:42:00,
2013-11-18 01:47:00,54.9,45.0,30.16,SSE,154,0.0,0.0,69,0.00,,,0.00,WUHU216WMR968SP,2013-11-18 09:47:00,
2013-11-18 01:52:00,54.9,45.0,30.16,SSE,154,0.0,0.0,69,0.00,,,0.00,WUHU216WMR968SP,2013-11-18 09:52:00,
2013-11-18 01:57:00,54.7,44.8,30.16,SSE,154,0.0,0.0,69,0.00,,,0.00,WUHU216WMR968SP,2013-11-18 09:57:00,
2013-11-18 02:02:00,54.7,44.8,30.16,SSE,154,0.0,0.0,69,0.00,,,0.00,WUHU216WMR968SP,2013-11-18 10:02:00,
2013-11-18 02:07:00,54.5,44.7,30.16,SSE,155,0.0,0.0,69,0.00,,,0.00,WUHU216WMR968SP,2013-11-18 10:07:00,
2013-11-18 02:12:00,54.5,44.7,30.16,SSE,155,0.0,0.0,69,0.00,,,0.00,WUHU216WMR968SP,2013-11-18 10:12:00,
2013-11-18 02:17:00,54.3,44.5,30.16,SSE,155,0.0,0.0,69,0.00,,,0.00,WUHU216WMR968SP,2013-11-18 10:17:00,
2013-11-18 02:22:00,54.1,44.3,30.16,SSE,154,0.0,0.0,69,0.00,,,0.00,WUHU216WMR968SP,2013-11-18 10:22:00,
2013-11-18 02:27:00,54.3,44.5,30.16,SSE,154,0.0,0.0,69,0.00,,,0.00,WUHU216WMR968SP,2013-11-18 10:27:00,
2013-11-18 02:32:00,54.3,44.5,30.16,SSE,154,0.0,0.0,69,0.00,,,0.00,WUHU216WMR968SP,2013-11-18 10:32:00,
2013-11-18 02:37:00,54.0,44.2,30.16,SSE,154,0.0,0.0,69,0.00,,,0.00,WUHU216WMR968SP,2013-11-18 10:37:00,
2013-11-18 02:42:00,54.0,44.2,30.16,SSE,154,0.0,0.0,69,0.00,,,0.00,WUHU216WMR968SP,2013-11-18 10:42:00,
2013-11-18 02:47:00,53.4,43.6,30.16,SSE,155,0.0,0.0,69,0.00,,,0.00,WUHU216WMR968SP,2013-11-18 10:47:00,
2013-11-18 02:52:00,53.1,43.3,30.16,SSE,154,0.0,0.0,69,0.00,,,0.00,WUHU216WMR968SP,2013-11-18 10:52:00,
2013-11-18 02:57:00,53.1,43.3,30.16,SSE,155,0.0,0.0,69,0.00,,,0.00,WUHU216WMR968SP,2013-11-18 10:57:00,
2013-11-18 03:02:00,53.1,43.7,30.16,SSE,154,0.0,0.0,70,0.00,,,0.00,WUHU216WMR968SP,2013-11-18 11:02:00,
2013-11-18 03:07:00,53.1,43.7,30.16,SSE,155,0.0,0.0,70,0.00,,,0.00,WUHU216WMR968SP,2013-11-18 11:07:00,
2013-11-18 03:12:00,53.2,43.8,30.16,SSE,154,0.0,0.0,70,0.00,,,0.00,WUHU216WMR968SP,2013-11-18 11:12:00,
2013-11-18 03:17:00,53.4,44.3,30.16,SSE,155,0.0,0.0,71,0.00,,,0.00,WUHU216WMR968SP,2013-11-18 11:17:00,
2013-11-18 03:22:00,53.4,44.3,30.16,SSE,154,0.0,0.0,71,0.00,,,0.00,WUHU216WMR968SP,2013-11-18 11:22:00,
2013-11-18 03:27:00,53.6,44.5,30.16,SSE,155,0.0,0.0,71,0.00,,,0.00,WUHU216WMR968SP,2013-11-18 11:27:00,
2013-11-18 03:32:00,53.6,44.5,30.16,SSE,155,0.0,0.0,71,0.00,,,0.00,WUHU216WMR968SP,2013-11-18 11:32:00,
2013-11-18 03:37:00,53.4,44.3,30.16,SSE,154,0.0,0.0,71,0.00,,,0.00,WUHU216WMR968SP,2013-11-18 11:37:00,
2013-11-18 03:42:00,53.4,44.3,30.16,SSE,154,0.0,0.0,71,0.00,,,0.00,WUHU216WMR968SP,2013-11-18 11:42:00,
2013-11-18 03:47:00,53.4,44.7,30.16,SSE,154,0.0,0.0,72,0.00,,,0.00,WUHU216WMR968SP,2013-11-18 11:47:00,
2013-11-18 03:52:00,53.6,44.5,30.16,SSE,154,0.0,0.0,71,0.00,,,0.00,WUHU216WMR968SP,2013-11-18 11:52:00,
2013-11-18 03:57:00,53.6,44.5,30.16,SSE,155,0.0,0.0,71,0.00,,,0.00,WUHU216WMR968SP,2013-11-18 11:57:00,
2013-11-18 04:02:00,53.6,44.5,30.16,SSE,155,0.0,0.0,71,0.00,,,0.00,WUHU216WMR968SP,2013-11-18 12:02:00,
2013-11-18 04:07:00,53.6,44.5,30.16,SSE,154,0.0,0.0,71,0.00,,,0.00,WUHU216WMR968SP,2013-11-18 12:07:00,
2013-11-18 04:12:00,53.6,44.5,30.19,SSE,154,0.0,0.0,71,0.00,,,0.00,WUHU216WMR968SP,2013-11-18 12:12:00,
2013-11-18 04:17:00,53.8,44.7,30.19,SSE,154,0.0,0.0,71,0.00,,,0.00,WUHU216WMR968SP,2013-11-18 12:17:00,
2013-11-18 04:22:00,53.6,44.5,30.19,SSE,154,0.0,0.0,71,0.00,,,0.00,WUHU216WMR968SP,2013-11-18 12:22:00,
2013-11-18 04:27:00,53.2,44.1,30.19,SSE,154,0.0,0.0,71,0.00,,,0.00,WUHU216WMR968SP,2013-11-18 12:27:00,
2013-11-18 04:32:00,53.2,44.1,30.19,SSE,154,0.0,0.0,71,0.00,,,0.00,WUHU216WMR968SP,2013-11-18 12:32:00,
2013-11-18 04:37:00,53.1,44.4,30.19,SSE,154,0.0,0.0,72,0.00,,,0.00,WUHU216WMR968SP,2013-11-18 12:37:00,
2013-11-18 04:42:00,52.9,44.2,30.19,SSE,154,0.0,0.0,72,0.00,,,0.00,WUHU216WMR968SP,2013-11-18 12:42:00,
2013-11-18 04:47:00,52.9,44.2,30.19,SSE,154,0.0,0.0,72,0.00,,,0.00,WUHU216WMR968SP,2013-11-18 12:47:00,
2013-11-18 04:52:00,52.7,44.0,30.19,SSE,154,0.0,0.0,72,0.00,,,0.00,WUHU216WMR968SP,2013-11-18 12:52:00,
2013-11-18 04:57:00,52.7,44.0,30.19,SSE,154,0.0,0.0,72,0.00,,,0.00,WUHU216WMR968SP,2013-11-18 12:57:00,
2013-11-18 05:02:00,52.7,44.0,30.19,SSE,154,0.0,0.0,72,0.00,,,0.00,WUHU216WMR968SP,2013-11-18 13:02:00,
2013-11-18 05:07:00,52.7,44.0,30.19,SSE,154,0.0,0.0,72,0.00,,,0.00,WUHU216WMR968SP,2013-11-18 13:07:00,
2013-11-18 05:12:00,53.1,44.8,30.19,SSE,154,0.0,0.0,73,0.00,,,0.00,WUHU216WMR968SP,2013-11-18 13:12:00,
2013-11-18 05:17:00,53.2,45.2,30.19,SSE,154,0.0,0.0,74,0.00,,,0.00,WUHU216WMR968SP,2013-11-18 13:17:00,
2013-11-18 05:22:00,53.4,45.8,30.19,SSE,154,0.0,0.0,75,0.00,,,0.00,WUHU216WMR968SP,2013-11-18 13:22:00,
2013-11-18 05:27:00,53.8,46.1,30.19,SSE,154,0.0,0.0,75,0.00,,,0.00,WUHU216WMR968SP,2013-11-18 13:27:00,
2013-11-18 05:32:00,54.1,46.8,30.19,SSE,155,0.0,0.0,76,0.00,,,0.00,WUHU216WMR968SP,2013-11-18 13:32:00,
2013-11-18 05:37:00,54.3,47.0,30.19,SSE,154,0.0,0.0,76,0.00,,,0.00,WUHU216WMR968SP,2013-11-18 13:37:00,
2013-11-18 05:42:00,54.5,47.2,30.19,SSE,155,0.0,0.0,76,0.00,,,0.00,WUHU216WMR968SP,2013-11-18 13:42:00,
2013-11-18 05:47:00,54.7,47.7,30.19,SSE,154,0.0,0.0,77,0.00,,,0.00,WUHU216WMR968SP,2013-11-18 13:47:00,
2013-11-18 05:52:00,54.7,47.7,30.19,SSE,154,0.0,0.0,77,0.00,,,0.00,WUHU216WMR968SP,2013-11-18 13:52:00,
2013-11-18 05:57:00,54.7,47.7,30.22,SSE,154,0.0,0.0,77,0.00,,,0.00,WUHU216WMR968SP,2013-11-18 13:57:00,
2013-11-18 06:02:00,54.7,47.7,30.22,SSE,154,0.0,0.0,77,0.00,,,0.00,WUHU216WMR968SP,2013-11-18 14:02:00,
2013-11-18 06:07:00,54.7,47.7,30.22,SSE,154,0.0,0.0,77,0.00,,,0.00,WUHU216WMR968SP,2013-11-18 14:07:00,
2013-11-18 06:12:00,54.7,47.7,30.22,SSE,154,0.0,0.0,77,0.00,,,0.00,WUHU216WMR968SP,2013-11-18 14:12:00,
2013-11-18 06:17:00,54.7,47.7,30.22,SSE,155,0.0,0.0,77,0.00,,,0.00,WUHU216WMR968SP,2013-11-18 14:17:00,
2013-11-18 06:22:00,54.9,47.6,30.22,SSE,154,0.0,0.0,76,0.00,,,0.00,WUHU216WMR968SP,2013-11-18 14:22:00,
2013-11-18 06:27:00,54.9,47.6,30.22,SSE,154,0.0,0.0,76,0.00,,,0.00,WUHU216WMR968SP,2013-11-18 14:27:00,
2013-11-18 06:32:00,55.0,47.7,30.22,SSE,154,0.0,0.0,76,0.00,,,0.00,WUHU216WMR968SP,2013-11-18 14:32:00,
2013-11-18 06:37:00,55.0,47.7,30.22,SSE,155,0.0,0.0,76,0.00,,,0.00,WUHU216WMR968SP,2013-11-18 14:37:00,
2013-11-18 06:42:00,55.2,47.8,30.22,SSE,154,0.0,0.0,76,0.00,,,0.00,WUHU216WMR968SP,2013-11-18 14:42:00,
2013-11-18 06:47:00,55.4,47.7,30.22,SSE,154,0.0,0.0,75,0.00,,,0.00,WUHU216WMR968SP,2013-11-18 14:47:00,
2013-11-18 06:52:00,55.4,47.7,30.22,SSE,154,0.0,0.0,75,0.00,,,0.00,WUHU216WMR968SP,2013-11-18 14:52:00,
2013-11-18 06:57:00,55.6,47.9,30.22,SSE,155,0.0,0.0,75,0.00,,,0.00,WUHU216WMR968SP,2013-11-18 14:57:00,
2013-11-18 07:02:00,55.8,48.1,30.22,SSE,155,0.0,0.0,75,0.00,,,0.00,WUHU216WMR968SP,2013-11-18 15:02:00,
2013-11-18 07:07:00,55.9,48.2,30.22,SSE,154,0.0,0.0,75,0.00,,,0.00,WUHU216WMR968SP,2013-11-18 15:07:00,
2013-11-18 07:12:00,55.9,48.2,30.22,SSE,154,0.0,0.0,75,0.00,,,0.00,WUHU216WMR968SP,2013-11-18 15:12:00,
2013-11-18 07:17:00,56.1,48.4,30.22,SSE,155,0.0,0.0,75,0.00,,,0.00,WUHU216WMR968SP,2013-11-18 15:17:00,
2013-11-18 07:22:00,56.3,48.9,30.22,SSE,154,0.0,0.0,76,0.00,,,0.00,WUHU216WMR968SP,2013-11-18 15:22:00,
2013-11-18 07:27:00,56.3,48.9,30.22,SSE,154,0.0,0.0,76,0.00,,,0.00,WUHU216WMR968SP,2013-11-18 15:27:00,
2013-11-18 07:32:00,56.5,49.1,30.22,SSE,154,0.0,0.0,76,0.00,,,0.00,WUHU216WMR968SP,2013-11-18 15:32:00,
2013-11-18 07:37:00,56.7,49.3,30.22,SSE,154,0.0,0.0,76,0.00,,,0.00,WUHU216WMR968SP,2013-11-18 15:37:00,
2013-11-18 07:42:00,56.7,49.3,30.19,SSE,154,0.0,0.0,76,0.00,,,0.00,WUHU216WMR968SP,2013-11-18 15:42:00,
2013-11-18 07:47:00,57.0,49.2,30.19,NNW,331,0.0,4.0,75,0.00,,,0.00,WUHU216WMR968SP,2013-11-18 15:47:00,
2013-11-18 07:52:00,57.2,49.4,30.19,NW,321,0.0,4.0,75,0.00,,,0.00,WUHU216WMR968SP,2013-11-18 15:52:00,
2013-11-18 07:57:00,57.4,49.3,30.19,North,0,0.0,3.1,74,0.00,,,0.00,WUHU216WMR968SP,2013-11-18 15:57:00,
2013-11-18 08:02:00,57.6,49.5,30.19,North,0,0.0,3.1,74,0.00,,,0.00,WUHU216WMR968SP,2013-11-18 16:02:00,
2013-11-18 08:07:00,57.9,49.4,30.19,North,0,0.0,0.0,73,0.00,,,0.00,WUHU216WMR968SP,2013-11-18 16:07:00,
2013-11-18 08:12:00,58.1,49.6,30.19,SW,229,0.0,3.1,73,0.00,,,0.00,WUHU216WMR968SP,2013-11-18 16:12:00,
2013-11-18 08:17:00,58.3,49.4,30.19,WSW,239,2.2,3.1,72,0.00,,,0.00,WUHU216WMR968SP,2013-11-18 16:17:00,
2013-11-18 08:22:00,58.5,49.6,30.19,North,353,0.0,4.0,72,0.00,,,0.00,WUHU216WMR968SP,2013-11-18 16:22:00,
2013-11-18 08:27:00,58.8,49.2,30.19,North,10,0.0,4.0,70,0.00,,,0.00,WUHU216WMR968SP,2013-11-18 16:27:00,
2013-11-18 08:32:00,58.8,48.8,30.19,North,10,0.0,3.6,69,0.00,,,0.00,WUHU216WMR968SP,2013-11-18 16:32:00,
2013-11-18 08:37:00,59.0,48.6,30.19,North,10,0.0,0.0,68,0.00,,,0.00,WUHU216WMR968SP,2013-11-18 16:37:00,
2013-11-18 08:42:00,59.2,48.8,30.19,North,10,0.0,0.0,68,0.00,,,0.00,WUHU216WMR968SP,2013-11-18 16:42:00,
2013-11-18 08:47:00,59.5,48.7,30.19,North,5,0.0,0.0,67,0.00,,,0.00,WUHU216WMR968SP,2013-11-18 16:47:00,
2013-11-18 08:52:00,59.9,49.1,30.19,North,0,0.0,3.1,67,0.00,,,0.00,WUHU216WMR968SP,2013-11-18 16:52:00,
2013-11-18 08:57:00,60.3,49.4,30.19,North,357,0.0,3.1,67,0.00,,,0.00,WUHU216WMR968SP,2013-11-18 16:57:00,
2013-11-18 09:02:00,60.6,49.3,30.19,NNE,16,0.0,0.0,66,0.00,,,0.00,WUHU216WMR968SP,2013-11-18 17:02:00,
2013-11-18 09:07:00,60.8,49.1,30.19,SW,235,4.0,5.4,65,0.00,,,0.00,WUHU216WMR968SP,2013-11-18 17:07:00,
2013-11-18 09:12:00,61.0,48.9,30.19,WSW,237,2.7,5.4,64,0.00,,,0.00,WUHU216WMR968SP,2013-11-18 17:12:00,
2013-11-18 09:17:00,61.3,49.2,30.19,SSW,194,3.1,4.9,64,0.00,,,0.00,WUHU216WMR968SP,2013-11-18 17:17:00,
2013-11-18 09:22:00,61.3,49.2,30.19,SSW,200,0.0,4.9,64,0.00,,,0.00,WUHU216WMR968SP,2013-11-18 17:22:00,
2013-11-18 09:27:00,61.3,49.2,30.19,SW,214,4.0,6.3,64,0.00,,,0.00,WUHU216WMR968SP,2013-11-18 17:27:00,
2013-11-18 09:32:00,61.3,48.3,30.19,WSW,251,4.0,6.3,62,0.00,,,0.00,WUHU216WMR968SP,2013-11-18 17:32:00,
2013-11-18 09:37:00,61.0,47.6,30.19,WSW,247,3.1,5.8,61,0.00,,,0.00,WUHU216WMR968SP,2013-11-18 17:37:00,
2013-11-18 09:42:00,60.8,47.8,30.19,SW,236,2.7,5.4,62,0.00,,,0.00,WUHU216WMR968SP,2013-11-18 17:42:00,
2013-11-18 09:47:00,60.4,47.5,30.19,SW,233,0.0,4.9,62,0.00,,,0.00,WUHU216WMR968SP,2013-11-18 17:47:00,
2013-11-18 09:52:00,60.4,47.9,30.19,SW,231,3.1,5.4,63,0.00,,,0.00,WUHU216WMR968SP,2013-11-18 17:52:00,
2013-11-18 09:57:00,60.4,47.9,30.19,WSW,241,2.2,6.3,63,0.00,,,0.00,WUHU216WMR968SP,2013-11-18 17:57:00,
2013-11-18 10:02:00,60.6,48.1,30.19,SW,236,0.0,6.3,63,0.00,,,0.00,WUHU216WMR968SP,2013-11-18 18:02:00,
2013-11-18 10:07:00,60.8,47.8,30.19,West,277,0.0,6.3,62,0.00,,,0.00,WUHU216WMR968SP,2013-11-18 18:07:00,
2013-11-18 10:12:00,61.0,47.6,30.19,SW,234,0.0,0.0,61,0.00,,,0.00,WUHU216WMR968SP,2013-11-18 18:12:00,
2013-11-18 10:17:00,61.2,46.9,30.19,WSW,241,0.0,0.0,59,0.00,,,0.00,WUHU216WMR968SP,2013-11-18 18:17:00,
2013-11-18 10:22:00,61.5,47.2,30.19,SW,222,0.0,0.0,59,0.00,,,0.00,WUHU216WMR968SP,2013-11-18 18:22:00,
2013-11-18 10:27:00,61.9,47.5,30.19,SW,226,0.0,0.0,59,0.00,,,0.00,WUHU216WMR968SP,2013-11-18 18:27:00,
2013-11-18 10:32:00,62.4,47.1,30.19,SE,125,0.0,0.0,57,0.00,,,0.00,WUHU216WMR968SP,2013-11-18 18:32:00,
2013-11-18 10:37:00,62.6,47.3,30.19,West,261,0.0,0.0,57,0.00,,,0.00,WUHU216WMR968SP,2013-11-18 18:37:00,
2013-11-18 10:42:00,62.1,46.3,30.19,WNW,297,0.0,0.0,56,0.00,,,0.00,WUHU216WMR968SP,2013-11-18 18:42:00,
2013-11-18 10:47:00,61.9,46.1,30.19,SW,234,0.0,0.0,56,0.00,,,0.00,WUHU216WMR968SP,2013-11-18 18:47:00,
2013-11-18 10:52:00,61.9,46.6,30.19,WNW,303,0.0,0.0,57,0.00,,,0.00,WUHU216WMR968SP,2013-11-18 18:52:00,
2013-11-18 10:57:00,62.2,46.4,30.19,SW,233,0.0,0.0,56,0.00,,,0.00,WUHU216WMR968SP,2013-11-18 18:57:00,
2013-11-18 11:02:00,62.6,46.8,30.19,WSW,247,3.6,5.4,56,0.00,,,0.00,WUHU216WMR968SP,2013-11-18 19:02:00,
2013-11-18 11:07:00,63.1,47.3,30.19,SSW,206,5.4,6.3,56,0.00,,,0.00,WUHU216WMR968SP,2013-11-18 19:07:00,
2013-11-18 11:12:00,63.9,47.5,30.16,SW,232,2.7,6.3,55,0.00,,,0.00,WUHU216WMR968SP,2013-11-18 19:12:00,
2013-11-18 11:17:00,63.9,47.0,30.16,WSW,250,3.1,5.4,54,0.00,,,0.00,WUHU216WMR968SP,2013-11-18 19:17:00,
2013-11-18 11:22:00,64.2,47.3,30.16,SSW,197,3.1,5.4,54,0.00,,,0.00,WUHU216WMR968SP,2013-11-18 19:22:00,
2013-11-18 11:27:00,64.8,47.9,30.19,South,180,3.1,6.3,54,0.00,,,0.00,WUHU216WMR968SP,2013-11-18 19:27:00,
2013-11-18 11:32:00,64.8,47.3,30.19,NW,308,0.0,6.3,53,0.00,,,0.00,WUHU216WMR968SP,2013-11-18 19:32:00,
2013-11-18 11:37:00,64.9,47.4,30.19,SSE,166,4.9,6.3,53,0.00,,,0.00,WUHU216WMR968SP,2013-11-18 19:37:00,
2013-11-18 11:42:00,65.5,48.0,30.16,WSW,238,4.0,6.3,53,0.00,,,0.00,WUHU216WMR968SP,2013-11-18 19:42:00,
2013-11-18 11:47:00,65.5,48.0,30.16,NNW,335,2.7,6.3,53,0.00,,,0.00,WUHU216WMR968SP,2013-11-18 19:47:00,
2013-11-18 11:52:00,65.3,47.8,30.16,WSW,253,2.7,4.9,53,0.00,,,0.00,WUHU216WMR968SP,2013-11-18 19:52:00,
2013-11-18 11:58:00,65.5,48.0,30.16,SW,231,4.0,8.3,53,0.00,,,0.00,WUHU216WMR968SP,2013-11-18 19:58:00,
2013-11-18 12:03:00,65.7,48.2,30.16,NNW,330,0.0,8.3,53,0.00,,,0.00,WUHU216WMR968SP,2013-11-18 20:03:00,
2013-11-18 12:08:00,65.7,48.2,30.16,SW,226,2.7,4.9,53,0.00,,,0.00,WUHU216WMR968SP,2013-11-18 20:08:00,
2013-11-18 12:13:00,65.7,48.2,30.16,WNW,297,3.6,6.3,53,0.00,,,0.00,WUHU216WMR968SP,2013-11-18 20:13:00,
2013-11-18 12:18:00,65.8,48.3,30.16,SSW,209,2.2,6.3,53,0.00,,,0.00,WUHU216WMR968SP,2013-11-18 20:18:00,
2013-11-18 12:23:00,65.8,48.3,30.16,WSW,244,4.0,6.3,53,0.00,,,0.00,WUHU216WMR968SP,2013-11-18 20:23:00,
2013-11-18 12:28:00,66.4,48.3,30.13,WSW,248,4.5,7.6,52,0.00,,,0.00,WUHU216WMR968SP,2013-11-18 20:28:00,
2013-11-18 12:33:00,67.1,49.0,30.13,WSW,251,3.6,7.6,52,0.00,,,0.00,WUHU216WMR968SP,2013-11-18 20:33:00,
2013-11-18 12:38:00,67.5,49.3,30.13,SW,230,4.0,6.3,52,0.00,,,0.00,WUHU216WMR968SP,2013-11-18 20:38:00,
2013-11-18 12:43:00,68.0,48.7,30.13,SSW,198,4.0,6.3,50,0.00,,,0.00,WUHU216WMR968SP,2013-11-18 20:43:00,
2013-11-18 12:48:00,68.5,49.2,30.13,SSW,213,4.9,8.1,50,0.00,,,0.00,WUHU216WMR968SP,2013-11-18 20:48:00,
2013-11-18 12:53:00,68.9,49.5,30.13,SW,225,4.5,8.1,50,0.00,,,0.00,WUHU216WMR968SP,2013-11-18 20:53:00,
2013-11-18 12:58:00,68.7,49.4,30.13,NW,308,3.1,6.3,50,0.00,,,0.00,WUHU216WMR968SP,2013-11-18 20:58:00,
2013-11-18 13:03:00,68.4,49.1,30.13,WSW,240,3.1,8.7,50,0.00,,,0.00,WUHU216WMR968SP,2013-11-18 21:03:00,
2013-11-18 13:08:00,68.4,49.1,30.13,SW,235,4.9,8.7,50,0.00,,,0.00,WUHU216WMR968SP,2013-11-18 21:08:00,
2013-11-18 13:13:00,68.4,49.1,30.13,SW,222,2.2,6.3,50,0.00,,,0.00,WUHU216WMR968SP,2013-11-18 21:13:00,
2013-11-18 13:18:00,68.5,49.2,30.13,SSW,206,4.9,6.3,50,0.00,,,0.00,WUHU216WMR968SP,2013-11-18 21:18:00,
2013-11-18 13:23:00,68.7,49.4,30.13,South,175,4.9,6.3,50,0.00,,,0.00,WUHU216WMR968SP,2013-11-18 21:23:00,
2013-11-18 13:28:00,68.4,47.4,30.13,WSW,244,5.4,7.6,47,0.00,,,0.00,WUHU216WMR968SP,2013-11-18 21:28:00,
2013-11-18 13:33:00,68.0,48.7,30.13,SW,223,3.1,7.6,50,0.00,,,0.00,WUHU216WMR968SP,2013-11-18 21:33:00,
2013-11-18 13:38:00,67.8,46.8,30.13,SSW,205,3.6,6.3,47,0.00,,,0.00,WUHU216WMR968SP,2013-11-18 21:38:00,
2013-11-18 13:43:00,68.0,48.7,30.10,SSW,199,4.0,6.3,50,0.00,,,0.00,WUHU216WMR968SP,2013-11-18 21:43:00,
2013-11-18 13:48:00,68.2,47.2,30.10,SW,216,4.0,7.2,47,0.00,,,0.00,WUHU216WMR968SP,2013-11-18 21:48:00,
2013-11-18 13:53:00,68.2,47.2,30.10,WSW,254,3.6,8.3,47,0.00,,,0.00,WUHU216WMR968SP,2013-11-18 21:53:00,
2013-11-18 13:58:00,68.0,47.0,30.10,WNW,287,4.0,8.3,47,0.00,,,0.00,WUHU216WMR968SP,2013-11-18 21:58:00,
2013-11-18 14:03:00,67.5,46.6,30.10,West,274,2.2,5.8,47,0.00,,,0.00,WUHU216WMR968SP,2013-11-18 22:03:00,
2013-11-18 14:08:00,67.5,48.2,30.10,SW,232,0.0,5.8,50,0.00,,,0.00,WUHU216WMR968SP,2013-11-18 22:08:00,
2013-11-18 14:13:00,67.5,48.2,30.10,WNW,301,0.0,2.2,50,0.00,,,0.00,WUHU216WMR968SP,2013-11-18 22:13:00,
2013-11-18 14:18:00,67.3,48.1,30.10,WSW,239,0.0,0.0,50,0.00,,,0.00,WUHU216WMR968SP,2013-11-18 22:18:00,
2013-11-18 14:23:00,67.1,47.9,30.10,WNW,287,0.0,0.0,50,0.00,,,0.00,WUHU216WMR968SP,2013-11-18 22:23:00,
2013-11-18 14:28:00,67.1,47.9,30.10,NNW,335,0.0,0.0,50,0.00,,,0.00,WUHU216WMR968SP,2013-11-18 22:28:00,
2013-11-18 14:33:00,67.1,47.9,30.10,SW,218,0.0,0.0,50,0.00,,,0.00,WUHU216WMR968SP,2013-11-18 22:33:00,
2013-11-18 14:38:00,67.1,47.9,30.10,WSW,239,0.0,0.0,50,0.00,,,0.00,WUHU216WMR968SP,2013-11-18 22:38:00,
2013-11-18 14:43:00,67.3,48.1,30.07,West,268,0.0,0.0,50,0.00,,,0.00,WUHU216WMR968SP,2013-11-18 22:43:00,
2013-11-18 14:48:00,67.1,47.9,30.07,WNW,297,0.0,0.0,50,0.00,,,0.00,WUHU216WMR968SP,2013-11-18 22:48:00,
2013-11-18 14:53:00,66.4,47.2,30.07,NW,304,0.0,0.0,50,0.00,,,0.00,WUHU216WMR968SP,2013-11-18 22:53:00,
2013-11-18 14:58:00,66.0,46.9,30.10,WNW,302,0.0,0.0,50,0.00,,,0.00,WUHU216WMR968SP,2013-11-18 22:58:00,
2013-11-18 15:03:00,65.8,46.7,30.10,WNW,286,0.0,0.0,50,0.00,,,0.00,WUHU216WMR968SP,2013-11-18 23:03:00,
2013-11-18 15:08:00,65.8,46.7,30.10,WNW,288,0.0,0.0,50,0.00,,,0.00,WUHU216WMR968SP,2013-11-18 23:08:00,
2013-11-18 15:13:00,65.7,46.6,30.10,SW,227,0.0,0.0,50,0.00,,,0.00,WUHU216WMR968SP,2013-11-18 23:13:00,
2013-11-18 15:18:00,65.7,46.6,30.10,NNW,327,0.0,0.0,50,0.00,,,0.00,WUHU216WMR968SP,2013-11-18 23:18:00,
2013-11-18 15:23:00,65.5,46.4,30.10,WNW,296,0.0,0.0,50,0.00,,,0.00,WUHU216WMR968SP,2013-11-18 23:23:00,
2013-11-18 15:28:00,65.5,46.4,30.07,NNW,328,0.0,0.0,50,0.00,,,0.00,WUHU216WMR968SP,2013-11-18 23:28:00,
2013-11-18 15:33:00,65.5,46.4,30.07,WNW,299,0.0,0.0,50,0.00,,,0.00,WUHU216WMR968SP,2013-11-18 23:33:00,
2013-11-18 15:38:00,65.5,46.4,30.07,NW,319,0.0,0.0,50,0.00,,,0.00,WUHU216WMR968SP,2013-11-18 23:38:00,
2013-11-18 15:43:00,65.3,46.2,30.10,WNW,290,0.0,0.0,50,0.00,,,0.00,WUHU216WMR968SP,2013-11-18 23:43:00,
2013-11-18 15:48:00,65.1,46.0,30.10,NW,320,0.0,0.0,50,0.00,,,0.00,WUHU216WMR968SP,2013-11-18 23:48:00,
2013-11-18 15:53:00,65.1,46.0,30.10,NW,312,0.0,0.0,50,0.00,,,0.00,WUHU216WMR968SP,2013-11-18 23:53:00,
2013-11-18 15:58:00,64.9,45.8,30.07,WNW,298,0.0,0.0,50,0.00,,,0.00,WUHU216WMR968SP,2013-11-18 23:58:00,
2013-11-18 16:03:00,64.8,47.3,30.07,WSW,246,0.0,0.0,53,0.00,,,0.00,WUHU216WMR968SP,2013-11-19 00:03:00,
2013-11-18 16:08:00,64.8,47.3,30.07,WSW,240,0.0,0.0,53,0.00,,,0.00,WUHU216WMR968SP,2013-11-19 00:08:00,
2013-11-18 16:13:00,64.8,47.3,30.07,WNW,290,0.0,0.0,53,0.00,,,0.00,WUHU216WMR968SP,2013-11-19 00:13:00,
2013-11-18 16:18:00,64.2,46.8,30.07,NW,311,0.0,0.0,53,0.00,,,0.00,WUHU216WMR968SP,2013-11-19 00:18:00,
2013-11-18 16:23:00,63.9,46.5,30.07,WNW,303,0.0,0.0,53,0.00,,,0.00,WUHU216WMR968SP,2013-11-19 00:23:00,
2013-11-18 16:28:00,63.5,46.6,30.07,WNW,300,0.0,0.0,54,0.00,,,0.00,WUHU216WMR968SP,2013-11-19 00:28:00,
2013-11-18 16:33:00,63.3,46.5,30.07,WNW,303,0.0,0.0,54,0.00,,,0.00,WUHU216WMR968SP,2013-11-19 00:33:00,
2013-11-18 16:38:00,63.1,46.3,30.07,WNW,282,2.2,3.6,54,0.00,,,0.00,WUHU216WMR968SP,2013-11-19 00:38:00,
2013-11-18 16:43:00,63.0,46.2,30.10,WNW,299,2.2,4.9,54,0.00,,,0.00,WUHU216WMR968SP,2013-11-19 00:43:00,
2013-11-18 16:48:00,62.6,45.8,30.10,NW,317,0.0,4.9,54,0.00,,,0.00,WUHU216WMR968SP,2013-11-19 00:48:00,
2013-11-18 16:53:00,62.4,46.1,30.10,SW,221,2.7,4.0,55,0.00,,,0.00,WUHU216WMR968SP,2013-11-19 00:53:00,
2013-11-18 16:58:00,62.2,45.9,30.10,SW,234,2.7,4.0,55,0.00,,,0.00,WUHU216WMR968SP,2013-11-19 00:58:00,
2013-11-18 17:03:00,62.2,45.9,30.10,NW,312,0.0,5.4,55,0.00,,,0.00,WUHU216WMR968SP,2013-11-19 01:03:00,
2013-11-18 17:08:00,62.1,45.8,30.10,NW,306,2.2,5.4,55,0.00,,,0.00,WUHU216WMR968SP,2013-11-19 01:08:00,
2013-11-18 17:13:00,61.9,45.6,30.10,WNW,303,3.1,4.9,55,0.00,,,0.00,WUHU216WMR968SP,2013-11-19 01:13:00,
2013-11-18 17:18:00,61.7,45.9,30.10,WNW,298,2.7,4.9,56,0.00,,,0.00,WUHU216WMR968SP,2013-11-19 01:18:00,
2013-11-18 17:23:00,61.5,45.8,30.10,NW,307,0.0,4.0,56,0.00,,,0.00,WUHU216WMR968SP,2013-11-19 01:23:00,
2013-11-18 17:28:00,61.3,45.6,30.10,NW,319,2.7,4.0,56,0.00,,,0.00,WUHU216WMR968SP,2013-11-19 01:28:00,
2013-11-18 17:33:00,61.2,46.0,30.10,WNW,303,2.2,4.0,57,0.00,,,0.00,WUHU216WMR968SP,2013-11-19 01:33:00,
2013-11-18 17:38:00,61.0,45.8,30.10,SW,230,2.7,4.0,57,0.00,,,0.00,WUHU216WMR968SP,2013-11-19 01:38:00,
2013-11-18 17:43:00,61.0,45.8,30.10,NW,313,3.1,4.0,57,0.00,,,0.00,WUHU216WMR968SP,2013-11-19 01:43:00,
2013-11-18 17:48:00,61.0,46.2,30.10,WSW,248,3.1,7.6,58,0.00,,,0.00,WUHU216WMR968SP,2013-11-19 01:48:00,
2013-11-18 17:53:00,61.0,46.2,30.10,SW,223,2.2,7.6,58,0.00,,,0.00,WUHU216WMR968SP,2013-11-19 01:53:00,
2013-11-18 17:58:00,60.6,46.3,30.10,WNW,300,0.0,4.0,59,0.00,,,0.00,WUHU216WMR968SP,2013-11-19 01:58:00,
2013-11-18 18:03:00,60.4,46.6,30.10,NW,306,0.0,5.4,60,0.00,,,0.00,WUHU216WMR968SP,2013-11-19 02:03:00,
2013-11-18 18:08:00,60.1,47.2,30.10,NW,325,2.2,5.8,62,0.00,,,0.00,WUHU216WMR968SP,2013-11-19 02:08:00,
2013-11-18 18:13:00,59.9,47.0,30.13,WNW,297,2.7,7.2,62,0.00,,,0.00,WUHU216WMR968SP,2013-11-19 02:13:00,
2013-11-18 18:18:00,59.7,47.2,30.13,WSW,252,2.7,7.2,63,0.00,,,0.00,WUHU216WMR968SP,2013-11-19 02:18:00,
2013-11-18 18:23:00,59.5,47.5,30.13,WSW,256,2.7,6.3,64,0.00,,,0.00,WUHU216WMR968SP,2013-11-19 02:23:00,
2013-11-18 18:28:00,59.5,47.5,30.13,West,280,0.0,4.5,64,0.00,,,0.00,WUHU216WMR968SP,2013-11-19 02:28:00,
2013-11-18 18:33:00,59.4,47.4,30.13,NW,319,2.2,4.0,64,0.00,,,0.00,WUHU216WMR968SP,2013-11-19 02:33:00,
2013-11-18 18:38:00,59.4,47.4,30.13,WNW,287,0.0,3.6,64,0.00,,,0.00,WUHU216WMR968SP,2013-11-19 02:38:00,
2013-11-18 18:43:00,59.2,47.2,30.13,NW,306,0.0,2.7,64,0.00,,,0.00,WUHU216WMR968SP,2013-11-19 02:43:00,
2013-11-18 18:48:00,59.0,47.0,30.13,NW,306,0.0,2.2,64,0.00,,,0.00,WUHU216WMR968SP,2013-11-19 02:48:00,
2013-11-18 18:53:00,59.0,47.0,30.13,NW,306,0.0,2.2,64,0.00,,,0.00,WUHU216WMR968SP,2013-11-19 02:53:00,
2013-11-18 18:58:00,58.8,47.2,30.13,NW,306,0.0,0.0,65,0.00,,,0.00,WUHU216WMR968SP,2013-11-19 02:58:00,
2013-11-18 19:03:00,58.6,46.6,30.13,NW,306,0.0,0.0,64,0.00,,,0.00,WUHU216WMR968SP,2013-11-19 03:03:00,
2013-11-18 19:08:00,58.5,46.9,30.13,NW,306,0.0,0.0,65,0.00,,,0.00,WUHU216WMR968SP,2013-11-19 03:08:00,
2013-11-18 19:13:00,58.3,46.7,30.13,NW,306,0.0,2.2,65,0.00,,,0.00,WUHU216WMR968SP,2013-11-19 03:13:00,
2013-11-18 19:18:00,58.3,46.7,30.13,WNW,294,0.0,2.2,65,0.00,,,0.00,WUHU216WMR968SP,2013-11-19 03:18:00,
2013-11-18 19:23:00,58.1,46.5,30.13,WNW,294,0.0,0.0,65,0.00,,,0.00,WUHU216WMR968SP,2013-11-19 03:23:00,
2013-11-18 19:28:00,57.9,46.3,30.13,WNW,294,0.0,0.0,65,0.00,,,0.00,WUHU216WMR968SP,2013-11-19 03:28:00,
2013-11-18 19:33:00,57.9,46.3,30.13,WNW,294,0.0,0.0,65,0.00,,,0.00,WUHU216WMR968SP,2013-11-19 03:33:00,
2013-11-18 19:38:00,57.9,46.3,30.13,WNW,294,0.0,0.0,65,0.00,,,0.00,WUHU216WMR968SP,2013-11-19 03:38:00,
2013-11-18 19:43:00,57.9,46.3,30.13,WNW,294,0.0,0.0,65,0.00,,,0.00,WUHU216WMR968SP,2013-11-19 03:43:00,
2013-11-18 19:48:00,57.9,46.3,30.13,WNW,294,0.0,0.0,65,0.00,,,0.00,WUHU216WMR968SP,2013-11-19 03:48:00,
2013-11-18 19:53:00,57.9,46.3,30.13,WNW,294,0.0,0.0,65,0.00,,,0.00,WUHU216WMR968SP,2013-11-19 03:53:00,
2013-11-18 19:58:00,57.9,46.3,30.13,WNW,294,0.0,0.0,65,0.00,,,0.00,WUHU216WMR968SP,2013-11-19 03:58:00,
2013-11-18 20:03:00,57.9,46.3,30.13,WNW,294,0.0,0.0,65,0.00,,,0.00,WUHU216WMR968SP,2013-11-19 04:03:00,
2013-11-18 20:09:00,58.3,46.7,30.13,WNW,294,0.0,0.0,65,0.00,,,0.00,WUHU216WMR968SP,2013-11-19 04:09:00,
2013-11-18 20:14:00,58.3,46.7,30.16,WNW,294,0.0,0.0,65,0.00,,,0.00,WUHU216WMR968SP,2013-11-19 04:14:00,
2013-11-18 20:19:00,58.5,46.9,30.16,WNW,294,0.0,0.0,65,0.00,,,0.00,WUHU216WMR968SP,2013-11-19 04:19:00,
2013-11-18 20:24:00,58.5,46.9,30.16,WNW,294,0.0,0.0,65,0.00,,,0.00,WUHU216WMR968SP,2013-11-19 04:24:00,
2013-11-18 20:29:00,58.5,46.9,30.16,WNW,294,0.0,0.0,65,0.00,,,0.00,WUHU216WMR968SP,2013-11-19 04:29:00,
2013-11-18 20:34:00,58.3,46.7,30.16,WNW,294,0.0,0.0,65,0.00,,,0.00,WUHU216WMR968SP,2013-11-19 04:34:00,
2013-11-18 20:39:00,58.1,46.9,30.16,WNW,302,0.0,3.1,66,0.00,,,0.00,WUHU216WMR968SP,2013-11-19 04:39:00,
2013-11-18 20:44:00,58.3,47.1,30.16,WNW,302,0.0,3.1,66,0.00,,,0.00,WUHU216WMR968SP,2013-11-19 04:44:00,
2013-11-18 20:49:00,58.3,47.1,30.16,WNW,302,0.0,0.0,66,0.00,,,0.00,WUHU216WMR968SP,2013-11-19 04:49:00,
2013-11-18 20:54:00,58.5,47.3,30.16,WNW,298,0.0,0.0,66,0.00,,,0.00,WUHU216WMR968SP,2013-11-19 04:54:00,
2013-11-18 20:59:00,58.8,47.2,30.19,WNW,298,0.0,0.0,65,0.00,,,0.00,WUHU216WMR968SP,2013-11-19 04:59:00,
2013-11-18 21:04:00,59.0,47.4,30.19,SW,226,0.0,0.0,65,0.00,,,0.00,WUHU216WMR968SP,2013-11-19 05:04:00,
2013-11-18 21:09:00,59.2,47.2,30.19,SW,226,0.0,0.0,64,0.00,,,0.00,WUHU216WMR968SP,2013-11-19 05:09:00,
2013-11-18 21:14:00,59.4,47.4,30.19,SW,226,0.0,0.0,64,0.00,,,0.00,WUHU216WMR968SP,2013-11-19 05:14:00,
2013-11-18 21:19:00,59.4,47.4,30.19,SW,226,0.0,0.0,64,0.00,,,0.00,WUHU216WMR968SP,2013-11-19 05:19:00,
2013-11-18 21:24:00,59.0,47.0,30.19,NW,324,0.0,2.7,64,0.00,,,0.00,WUHU216WMR968SP,2013-11-19 05:24:00,
2013-11-18 21:29:00,58.8,47.2,30.19,NW,321,0.0,2.7,65,0.00,,,0.00,WUHU216WMR968SP,2013-11-19 05:29:00,
2013-11-18 21:34:00,58.6,47.0,30.19,NW,321,0.0,0.0,65,0.00,,,0.00,WUHU216WMR968SP,2013-11-19 05:34:00,
2013-11-18 21:39:00,58.6,47.0,30.19,NW,321,0.0,0.0,65,0.00,,,0.00,WUHU216WMR968SP,2013-11-19 05:39:00,
2013-11-18 21:44:00,58.5,46.9,30.19,NW,321,0.0,0.0,65,0.00,,,0.00,WUHU216WMR968SP,2013-11-19 05:44:00,
2013-11-18 21:49:00,58.5,46.9,30.19,WNW,301,0.0,3.6,65,0.00,,,0.00,WUHU216WMR968SP,2013-11-19 05:49:00,
2013-11-18 21:54:00,58.5,46.9,30.19,NW,306,0.0,3.6,65,0.00,,,0.00,WUHU216WMR968SP,2013-11-19 05:54:00,
2013-11-18 21:59:00,58.5,46.9,30.19,NW,324,0.0,2.2,65,0.00,,,0.00,WUHU216WMR968SP,2013-11-19 05:59:00,
2013-11-18 22:04:00,58.5,46.9,30.19,NW,324,0.0,2.2,65,0.00,,,0.00,WUHU216WMR968SP,2013-11-19 06:04:00,
2013-11-18 22:09:00,58.5,46.9,30.19,NW,324,0.0,0.0,65,0.00,,,0.00,WUHU216WMR968SP,2013-11-19 06:09:00,
2013-11-18 22:14:00,58.5,46.9,30.19,NW,324,0.0,0.0,65,0.00,,,0.00,WUHU216WMR968SP,2013-11-19 06:14:00,
2013-11-18 22:19:00,58.5,46.9,30.19,NW,324,0.0,0.0,65,0.00,,,0.00,WUHU216WMR968SP,2013-11-19 06:19:00,
2013-11-18 22:24:00,58.5,46.9,30.19,NW,314,0.0,0.0,65,0.00,,,0.00,WUHU216WMR968SP,2013-11-19 06:24:00,
2013-11-18 22:29:00,58.6,47.0,30.19,SW,234,2.7,3.6,65,0.00,,,0.00,WUHU216WMR968SP,2013-11-19 06:29:00,
2013-11-18 22:34:00,58.8,47.2,30.19,SW,234,0.0,3.6,65,0.00,,,0.00,WUHU216WMR968SP,2013-11-19 06:34:00,
2013-11-18 22:39:00,58.6,47.0,30.19,WSW,247,2.7,2.7,65,0.00,,,0.00,WUHU216WMR968SP,2013-11-19 06:39:00,
2013-11-18 22:44:00,58.6,47.0,30.16,WNW,301,0.0,2.7,65,0.00,,,0.00,WUHU216WMR968SP,2013-11-19 06:44:00,
2013-11-18 22:49:00,58.5,47.3,30.16,NW,305,0.0,3.6,66,0.00,,,0.00,WUHU216WMR968SP,2013-11-19 06:49:00,
2013-11-18 22:54:00,58.5,47.3,30.16,NW,305,0.0,3.6,66,0.00,,,0.00,WUHU216WMR968SP,2013-11-19 06:54:00,
2013-11-18 22:59:00,58.5,47.3,30.16,NW,304,0.0,0.0,66,0.00,,,0.00,WUHU216WMR968SP,2013-11-19 06:59:00,
2013-11-18 23:04:00,58.5,47.3,30.16,NW,305,0.0,0.0,66,0.00,,,0.00,WUHU216WMR968SP,2013-11-19 07:04:00,
2013-11-18 23:09:00,58.5,47.3,30.16,NW,305,0.0,0.0,66,0.00,,,0.00,WUHU216WMR968SP,2013-11-19 07:09:00,
2013-11-18 23:14:00,58.6,47.4,30.16,NW,305,0.0,0.0,66,0.00,,,0.00,WUHU216WMR968SP,2013-11-19 07:14:00,
2013-11-18 23:19:00,58.6,47.0,30.16,NW,305,0.0,0.0,65,0.00,,,0.00,WUHU216WMR968SP,2013-11-19 07:19:00,
2013-11-18 23:24:00,58.6,47.0,30.16,NW,305,0.0,0.0,65,0.00,,,0.00,WUHU216WMR968SP,2013-11-19 07:24:00,
2013-11-18 23:29:00,58.5,46.9,30.16,NW,305,0.0,0.0,65,0.00,,,0.00,WUHU216WMR968SP,2013-11-19 07:29:00,
2013-11-18 23:34:00,58.5,46.9,30.16,NW,305,0.0,0.0,65,0.00,,,0.00,WUHU216WMR968SP,2013-11-19 07:34:00,
2013-11-18 23:39:00,58.5,46.9,30.16,NW,305,0.0,0.0,65,0.00,,,0.00,WUHU216WMR968SP,2013-11-19 07:39:00,
2013-11-18 23:44:00,58.6,47.0,30.16,NW,305,0.0,0.0,65,0.00,,,0.00,WUHU216WMR968SP,2013-11-19 07:44:00,
2013-11-18 23:49:00,58.6,47.0,30.16,NW,305,0.0,0.0,65,0.00,,,0.00,WUHU216WMR968SP,2013-11-19 07:49:00,
2013-11-18 23:54:00,58.6,47.0,30.16,NW,305,0.0,0.0,65,0.00,,,0.00,WUHU216WMR968SP,2013-11-19 07:54:00,
2013-11-18 23:59:00,58.6,47.0,30.16,NW,305,0.0,0.0,65,0.00,,,0.00,WUHU216WMR968SP,2013-11-19 07:59:00,